• In Hungary
  • List of Countries
  • For 7 days
  • Water Temperature
  • Satellite Maps
  • Weather Map
  • News
  • Weather Widgets
  • user-avatar
    Login

    Hourly Weather Irkilik

    Today, 19 June, Tuesday

    Time Temperature Precipitation Wind Pressure Humidity
    00:00 +10°C° 0 mm 1 mps 664 mmHg 71%
    01:00 +10°C° 0 mm 1 mps 664 mmHg 73%
    02:00 +9°C° 0 mm 1 mps 663 mmHg 74%
    03:00 +9°C° 0 mm 1 mps 663 mmHg 74%
    04:00 +8°C° 0 mm 0 mps 663 mmHg 74%
    05:00 +11°C° 0 mm 0 mps 664 mmHg 65%
    06:00 +14°C° 0 mm 0 mps 665 mmHg 55%
    07:00 +18°C° 0 mm 0 mps 666 mmHg 45%
    08:00 +22°C° 0 mm 1 mps 666 mmHg 40%
    09:00 +23°C° 0 mm 1 mps 666 mmHg 36%
    10:00 +25°C° 0 mm 1 mps 666 mmHg 31%
    11:00 +26°C° 0 mm 1 mps 666 mmHg 29%
    12:00 +27°C° 0 mm 1 mps 666 mmHg 27%
    13:00 +27°C° 0 mm 2 mps 666 mmHg 24%
    14:00 +27°C° 0 mm 1 mps 665 mmHg 24%
    15:00 +27°C° 0 mm 1 mps 665 mmHg 24%
    16:00 +27°C° 0 mm 1 mps 665 mmHg 23%
    17:00 +25°C° 0 mm 1 mps 664 mmHg 29%
    18:00 +24°C° 0 mm 1 mps 664 mmHg 35%
    19:00 +22°C° 0 mm 1 mps 663 mmHg 41%
    20:00 +20°C° 0 mm 1 mps 663 mmHg 45%
    21:00 +16°C° 0 mm 1 mps 662 mmHg 48%
    22:00 +14°C° 0 mm 1 mps 662 mmHg 52%
    23:00 +14°C° 0 mm 1 mps 662 mmHg 53%

    Tomorrow, 20 June, Wednesday

    Time Temperature Precipitation Wind Pressure Humidity
    00:00 +13°C° 0 mm 1 mps 661 mmHg 53%
    01:00 +13°C° 0 mm 1 mps 661 mmHg 54%
    02:00 +13°C° 0 mm 1 mps 661 mmHg 55%
    03:00 +12°C° 0 mm 1 mps 661 mmHg 55%
    04:00 +12°C° 0 mm 2 mps 661 mmHg 56%
    05:00 +14°C° 0 mm 2 mps 661 mmHg 51%
    06:00 +17°C° 0 mm 2 mps 661 mmHg 46%
    07:00 +19°C° 0 mm 2 mps 662 mmHg 41%
    08:00 +21°C° 0 mm 2 mps 662 mmHg 36%
    09:00 +24°C° 0 mm 2 mps 662 mmHg 31%
    10:00 +26°C° 0 mm 3 mps 662 mmHg 26%
    11:00 +27°C° 0 mm 2 mps 662 mmHg 25%
    12:00 +28°C° 0 mm 2 mps 662 mmHg 24%
    13:00 +29°C° 0 mm 2 mps 662 mmHg 22%
    14:00 +29°C° 0 mm 2 mps 661 mmHg 23%
    15:00 +29°C° 0 mm 2 mps 661 mmHg 24%
    16:00 +29°C° 0 mm 1 mps 661 mmHg 25%
    17:00 +27°C° 0 mm 1 mps 661 mmHg 30%
    18:00 +25°C° 0 mm 1 mps 660 mmHg 35%
    19:00 +24°C° 0 mm 1 mps 660 mmHg 41%
    20:00 +22°C° 0 mm 1 mps 660 mmHg 45%
    21:00 +20°C° 0 mm 1 mps 659 mmHg 49%
    22:00 +18°C° 0 mm 1 mps 659 mmHg 54%
    23:00 +16°C° 0.1 mm 1 mps 659 mmHg 56%

    Day after tomorrow, 21 June, Thursday

    Time Temperature Precipitation Wind Pressure Humidity
    00:00 +15°C° 0.1 mm 1 mps 659 mmHg 58%
    01:00 +15°C° 0.1 mm 1 mps 659 mmHg 61%
    02:00 +14°C° 0.1 mm 1 mps 659 mmHg 63%
    03:00 +14°C° 0.1 mm 1 mps 659 mmHg 66%
    04:00 +14°C° 0.1 mm 1 mps 658 mmHg 68%
    05:00 +15°C° 0 mm 1 mps 659 mmHg 65%
    06:00 +18°C° 0 mm 1 mps 659 mmHg 61%
    07:00 +19°C° 0 mm 1 mps 660 mmHg 58%
    08:00 +20°C° 0.1 mm 1 mps 660 mmHg 57%
    09:00 +20°C° 0.1 mm 2 mps 660 mmHg 55%
    10:00 +21°C° 0.1 mm 2 mps 660 mmHg 54%
    11:00 +21°C° 0.4 mm 2 mps 660 mmHg 56%
    12:00 +21°C° 0.4 mm 3 mps 660 mmHg 59%
    13:00 +21°C° 0.4 mm 3 mps 660 mmHg 61%
    14:00 +20°C° 0.3 mm 3 mps 660 mmHg 61%
    15:00 +20°C° 0.3 mm 3 mps 660 mmHg 61%
    16:00 +20°C° 0.3 mm 3 mps 660 mmHg 61%
    17:00 +19°C° 0 mm 3 mps 660 mmHg 64%
    18:00 +18°C° 0 mm 2 mps 660 mmHg 67%
    19:00 +18°C° 0 mm 2 mps 660 mmHg 69%
    20:00 +16°C° 0 mm 2 mps 660 mmHg 76%
    21:00 +15°C° 0 mm 1 mps 660 mmHg 82%
    22:00 +14°C° 0 mm 1 mps 660 mmHg 88%
    23:00 +13°C° 0 mm 1 mps 659 mmHg 90%

    22 June, Friday

    Time Temperature Precipitation Wind Pressure Humidity
    00:00 +13°C° 0 mm 1 mps 659 mmHg 92%
    01:00 +12°C° 0 mm 1 mps 659 mmHg 94%
    02:00 +12°C° 0 mm 1 mps 659 mmHg 95%
    03:00 +12°C° 0 mm 1 mps 659 mmHg 95%
    04:00 +12°C° 0 mm 1 mps 659 mmHg 95%
    05:00 +14°C° 0 mm 2 mps 660 mmHg 86%
    06:00 +16°C° 0 mm 2 mps 661 mmHg 78%
    07:00 +18°C° 0 mm 2 mps 661 mmHg 69%
    08:00 +19°C° 0 mm 3 mps 662 mmHg 61%
    09:00 +21°C° 0 mm 3 mps 662 mmHg 53%
    10:00 +24°C° 0 mm 3 mps 662 mmHg 46%
    11:00 +23°C° 0 mm 4 mps 662 mmHg 45%
    12:00 +23°C° 0 mm 4 mps 662 mmHg 45%
    13:00 +23°C° 0 mm 5 mps 662 mmHg 45%
    14:00 +22°C° 0 mm 5 mps 662 mmHg 48%
    15:00 +22°C° 0 mm 5 mps 662 mmHg 50%
    16:00 +21°C° 0 mm 5 mps 662 mmHg 53%
    17:00 +19°C° 0.3 mm 4 mps 661 mmHg 63%
    18:00 +17°C° 0.3 mm 3 mps 661 mmHg 72%
    19:00 +14°C° 0.3 mm 3 mps 661 mmHg 81%
    20:00 +15°C° 0.2 mm 2 mps 661 mmHg 85%
    21:00 +14°C° 0.2 mm 2 mps 661 mmHg 89%
    22:00 +13°C° 0.2 mm 2 mps 661 mmHg 93%
    23:00 +13°C° 0.2 mm 2 mps 661 mmHg 94%

    23 June, Saturday

    Time Temperature Precipitation Wind Pressure Humidity
    00:00 +12°C° 0.2 mm 2 mps 661 mmHg 95%
    01:00 +12°C° 0.2 mm 1 mps 661 mmHg 95%
    02:00 +12°C° 0.1 mm 1 mps 660 mmHg 96%
    03:00 +11°C° 0.1 mm 1 mps 660 mmHg 96%
    04:00 +11°C° 0.1 mm 1 mps 660 mmHg 97%
    05:00 +12°C° 0.1 mm 2 mps 660 mmHg 93%
    06:00 +13°C° 0.1 mm 2 mps 661 mmHg 89%
    07:00 +14°C° 0.1 mm 2 mps 661 mmHg 85%
    08:00 +16°C° 0.1 mm 2 mps 661 mmHg 74%
    09:00 +17°C° 0.1 mm 3 mps 662 mmHg 62%
    10:00 +19°C° 0.1 mm 3 mps 662 mmHg 51%
    11:00 +20°C° 0.1 mm 4 mps 662 mmHg 47%
    12:00 +21°C° 0.1 mm 4 mps 662 mmHg 44%
    13:00 +22°C° 0.1 mm 5 mps 662 mmHg 40%
    14:00 +22°C° 0.1 mm 4 mps 662 mmHg 40%
    15:00 +22°C° 0.1 mm 4 mps 662 mmHg 40%
    16:00 +22°C° 0.1 mm 4 mps 661 mmHg 41%
    17:00 +20°C° 0.2 mm 4 mps 661 mmHg 46%
    18:00 +19°C° 0.2 mm 3 mps 661 mmHg 51%
    19:00 +18°C° 0.2 mm 2 mps 661 mmHg 56%
    20:00 +16°C° 0.2 mm 2 mps 660 mmHg 64%
    21:00 +14°C° 0.2 mm 2 mps 660 mmHg 72%
    22:00 +12°C° 0.2 mm 1 mps 660 mmHg 80%
    23:00 +12°C° 0.1 mm 1 mps 660 mmHg 83%

    24 June, Sunday

    Time Temperature Precipitation Wind Pressure Humidity
    00:00 +11°C° 0.1 mm 1 mps 660 mmHg 87%
    01:00 +10°C° 0.1 mm 1 mps 659 mmHg 91%
    02:00 +10°C° 0 mm 1 mps 659 mmHg 92%
    03:00 +10°C° 0 mm 1 mps 659 mmHg 93%
    04:00 +9°C° 0 mm 1 mps 659 mmHg 94%
    05:00 +12°C° 0 mm 2 mps 660 mmHg 83%
    06:00 +14°C° 0 mm 2 mps 660 mmHg 72%
    07:00 +17°C° 0 mm 2 mps 661 mmHg 62%
    08:00 +18°C° 0 mm 3 mps 661 mmHg 55%
    09:00 +20°C° 0 mm 4 mps 661 mmHg 48%
    10:00 +21°C° 0 mm 5 mps 662 mmHg 41%
    11:00 +22°C° 0.1 mm 5 mps 661 mmHg 40%
    12:00 +22°C° 0.1 mm 5 mps 661 mmHg 39%
    13:00 +23°C° 0.1 mm 5 mps 661 mmHg 38%
    14:00 +23°C° 0.1 mm 5 mps 661 mmHg 38%
    15:00 +23°C° 0.1 mm 5 mps 661 mmHg 38%
    16:00 +23°C° 0.1 mm 5 mps 661 mmHg 39%
    17:00 +21°C° 0 mm 4 mps 660 mmHg 43%
    18:00 +20°C° 0 mm 3 mps 660 mmHg 48%
    19:00 +19°C° 0 mm 2 mps 660 mmHg 52%
    20:00 +17°C° 0.1 mm 2 mps 660 mmHg 60%
    21:00 +15°C° 0.1 mm 2 mps 659 mmHg 67%
    22:00 +13°C° 0.1 mm 1 mps 659 mmHg 75%
    23:00 +12°C° 0 mm 1 mps 659 mmHg 77%
    Show more